Location: Berlise
(49.6641°N, 4.1077°E)
Time: 02:39:45
(UTC+00:00)

H-2A R/B - Pass Details

Date: 27 January 2021
Orbit: 529 x 651 km, 98.3° (Epoch: 24 February)

Event Time Altitude Azimuth Distance (km) Brightness Sun altitude
Rises 06:33:41 0° 11° (N) 2,973 6.0 -8.1°
Reaches altitude 10° 06:35:56 10° 8° (N) 2,065 5.1 -7.7°
Maximum altitude 06:40:22 59° 289° (WNW) 755 2.7 -7.1°
Drops below altitude 10° 06:44:47 10° 210° (SSW) 2,049 5.1 -6.4°
Sets 06:47:00 0° 207° (SSW) 2,948 6.0 -6.1°
